Temperature
20 20 19 19 18 18 20 22 24 25 26 26 26 26 24 23 23 23 22 23 22 22 21 20 20 21 21 21 21 21 21 21 20 20 20 20 20 20 19 19 19 19 19 19 19 19 19 19 19
20 19 19 19 19 20 22 24 24 25 26 27 27 26 24 22 22 22 23 22 22 22 21 21 20 21 21 21 21 21 21 21 20 20 20 20 20 20 19 19 19 19 19 19 19 19 19 19 19
20 19 19 18 19 20 23 25 25 26 27 27 26 25 24 23 23 23 23 23 22 22 21 21 21 21 21 21 21 21 21 20 20 20 20 20 20 20 19 19 19 19 19 19 19 19 19 19 19
20 19 19 18 20 21 23 24 25 26 27 27 26 24 23 22 23 24 24 23 22 22 21 21 21 21 21 21 21 20 20 20 20 20 20 20 20 19 19 19 19 19 19 19 19 19 19 19 19
20 19 18 18 20 22 23 25 26 25 26 26 25 23 21 22 23 24 23 23 22 22 21 21 21 20 20 20 20 20 20 20 20 20 20 20 19 19 19 19 19 19 19 19 19 19 19 19 19
20 18 18 19 21 23 24 26 26 25 26 25 24 22 21 21 23 23 23 23 22 22 21 21 21 20 20 20 20 20 20 20 20 20 20 20 19 19 19 19 19 19 19 19 19 19 19 19 18
20 17 19 20 21 23 26 26 25 25 24 25 24 21 20 20 22 22 23 22 22 21 21 21 21 20 20 20 20 20 20 20 20 20 19 19 19 19 19 19 19 19 19 19 19 19 19 19 18
21 17 20 19 21 23 25 26 25 25 25 25 25 22 20 20 21 22 22 22 21 21 21 21 20 20 20 20 20 20 20 20 20 19 19 19 19 19 19 19 19 19 19 19 19 19 19 19 18
21 18 18 20 22 23 25 24 25 25 24 24 23 23 23 21 21 21 21 21 21 21 21 21 21 20 20 20 20 20 19 19 19 19 19 19 19 19 19 19 19 19 18 18 18 18 18 18 18
21 18 19 21 22 23 24 24 24 24 23 22 21 22 22 21 21 21 21 21 21 21 21 21 21 20 20 20 20 20 19 19 19 19 19 19 19 19 19 19 19 19 18 18 18 18 18 18 18
20 19 21 22 24 24 23 23 23 22 21 21 20 20 21 21 21 21 21 22 22 22 21 21 21 20 20 20 20 20 19 19 19 19 19 19 19 19 18 19 18 18 18 18 18 18 18 18 18
20 21 22 23 24 23 23 22 21 21 20 21 21 21 21 20 20 21 21 21 21 21 21 21 20 20 20 20 20 20 19 19 19 19 19 19 18 18 19 18 18 18 18 18 18 18 18 17 17
21 22 23 23 23 22 21 21 20 19 19 20 20 20 19 19 20 20 20 20 21 21 21 21 20 20 20 20 20 19 19 19 19 18 18 18 18 18 18 18 18 18 17 17 17 17 17 17 17
23 23 23 22 22 21 20 19 19 18 19 19 19 19 19 19 19 20 20 20 20 20 20 20 20 20 19 19 19 19 18 18 18 18 18 18 18 18 17 18 17 17 17 17 17 17 17 17 17
23 22 21 21 21 21 20 19 18 18 19 19 18 18 18 19 19 19 19 20 20 20 19 19 20 19 19 19 18 18 18 18 17 17 17 17 17 17 17 17 17 17 17 17 17 17 17 16 16
21 21 21 21 20 20 20 18 18 18 18 18 18 18 19 19 19 19 19 19 19 19 19 19 19 19 18 18 18 18 17 18 17 17 17 17 17 17 17 17 16 16 16 16 16 16 16 16 16
20 20 20 20 20 20 19 18 17 18 18 17 18 18 18 18 18 19 19 19 19 19 19 19 18 18 18 18 18 17 17 17 17 17 17 17 16 16 16 16 16 16 16 16 16 16 16 16 16
21 21 20 20 20 19 18 17 17 17 17 17 17 18 18 18 18 19 19 19 19 19 19 19 18 18 18 18 18 17 17 17 17 17 17 16 16 16 16 16 16 15 15 15 15 15 15 15 15
21 21 20 20 20 19 18 17 17 17 17 17 17 17 18 18 19 19 19 19 19 19 19 19 19 18 18 18 18 17 17 17 17 16 16 16 16 16 15 15 15 15 15 15 15 15 15 15 15
21 21 20 20 20 19 17 17 17 17 17 17 17 17 18 18 19 19 19 19 19 19 19 19 18 18 18 18 17 17 17 17 16 16 16 16 15 15 15 15 15 15 15 15 15 14 14 15 14
21 21 20 19 19 18 18 17 17 17 17 17 17 18 18 19 19 19 19 19 19 19 19 19 18 18 18 17 17 17 16 16 16 16 15 15 15 15 14 14 14 14 14 14 14 14 14 14 14
21 21 21 20 18 17 18 17 17 16 16 17 17 18 19 19 19 20 19 19 19 19 18 18 18 18 17 17 16 16 16 15 15 15 15 14 14 14 14 14 14 14 14 14 14 14 13 13 13
20 20 19 18 17 17 16 17 17 16 17 17 17 18 19 19 19 19 19 19 19 19 18 18 18 17 17 16 16 15 15 15 14 14 14 14 13 13 13 13 13 13 13 13 13 13 13 13 13
20 19 17 16 16 17 16 16 17 16 17 17 18 18 19 19 19 19 19 19 19 18 18 18 17 17 16 16 15 15 14 14 14 13 13 13 12 12 12 12 12 12 12 12 12 13 13 13 13
19 18 17 18 16 17 16 16 16 17 17 17 18 19 20 19 19 20 19 19 19 18 18 17 17 16 16 15 15 14 14 13 13 12 12 12 12 12 12 11 11 11 12 12 12 12 12 12 12
19 19 18 19 18 16 16 16 17 18 18 18 19 19 19 20 20 20 19 19 18 18 17 17 16 16 15 14 14 13 13 12 12 12 12 11 11 11 11 11 11 11 11 11 11 11 11 12 12
19 18 17 15 16 16 17 17 18 18 18 18 18 19 19 20 20 19 19 19 18 17 17 16 15 15 14 14 13 13 12 12 12 11 11 11 11 11 10 10 10 10 10 10 10 10 11 11 11
20 16 15 16 17 18 18 18 17 19 19 18 18 19 19 20 19 19 19 18 17 17 16 15 15 14 13 13 12 12 12 11 11 11 10 10 10 10 10 10 10 10 10 10 10 10 10 10 11
20 18 15 14 16 16 17 17 18 18 18 18 18 19 20 20 19 19 18 17 17 16 15 15 14 13 13 12 12 12 11 11 11 10 10 10 10 9 9 9 9 9 9 9 9 9 10 10 10
22 20 16 18 17 15 16 17 18 17 17 18 19 20 20 19 19 18 18 17 16 16 15 14 13 13 12 12 12 11 11 11 10 10 10 9 9 9 9 9 9 9 9 9 9 9 9 9 9
Wind_Speed
13 9 3 2 2 1 5 5 4 4 3 1 2 4 5 3 2 2 3 12 16 16 16 20 20 21 21 20 20 20 19 19 19 18 18 17 17 16 15 14 13 12 11 10 9 8 7 8 8
9 5 2 2 2 2 5 4 4 3 2 1 3 3 4 3 4 7 7 10 17 15 15 18 20 20 20 20 20 19 19 18 18 17 17 16 16 15 14 13 13 12 11 10 9 8 8 8 8
7 2 3 3 0 3 6 5 5 5 3 1 2 4 4 3 5 6 8 15 15 12 14 18 21 20 20 19 19 18 18 17 17 16 16 15 15 14 13 12 12 11 10 9 9 8 8 8 8
4 2 3 3 4 5 6 9 8 6 3 2 4 4 4 4 3 7 15 17 16 12 13 17 20 19 19 19 18 18 17 17 16 16 15 14 14 13 12 11 10 10 9 9 8 8 8 8 8
3 4 3 2 6 6 7 9 7 4 1 3 4 4 4 6 9 14 16 17 16 12 11 16 19 19 18 18 17 17 16 16 15 15 14 14 13 13 12 11 10 10 9 8 8 8 8 8 8
4 4 3 3 6 7 6 7 4 3 3 4 4 4 4 4 9 12 13 13 13 12 10 14 18 18 17 17 17 16 15 15 15 14 14 13 13 12 12 11 10 10 10 9 9 9 9 8 8
4 4 2 4 5 6 5 6 4 3 4 3 3 4 3 4 6 9 11 12 11 10 8 8 13 15 16 16 16 15 15 14 14 14 13 13 12 12 12 11 11 11 10 10 10 10 10 10 9
5 4 1 4 5 6 6 7 4 3 1 2 4 6 4 6 10 11 11 10 10 8 7 5 7 9 11 12 14 14 14 14 13 13 13 12 12 12 12 12 12 12 11 11 11 11 11 11 11
4 3 3 5 5 6 6 6 6 3 3 4 5 3 8 15 14 13 11 9 9 9 6 6 6 6 6 7 10 12 12 13 13 12 13 12 11 10 11 11 12 13 12 12 12 13 13 12 12
4 3 8 7 6 6 6 4 4 3 5 5 7 10 16 15 13 13 12 11 11 10 8 6 6 6 6 6 6 6 7 8 9 8 9 9 8 8 9 10 12 13 13 13 14 14 14 13 11
7 7 7 8 9 7 4 3 4 3 4 3 5 12 15 13 10 9 9 9 9 8 8 6 6 5 5 3 3 4 4 5 6 7 7 6 6 6 7 6 8 9 10 9 10 12 11 11 10
6 8 7 7 4 3 2 1 4 7 4 5 8 10 11 10 7 6 6 5 5 6 5 5 5 4 3 2 2 4 4 4 5 6 7 6 4 4 5 4 5 5 5 6 6 7 10 11 12
6 6 4 4 3 1 5 6 7 7 8 10 12 11 9 7 6 5 5 5 5 4 4 4 6 6 5 3 2 2 2 2 4 4 5 7 4 4 4 3 3 4 5 5 4 5 6 7 9
4 3 3 4 2 3 9 7 6 6 7 12 12 11 9 7 6 6 5 5 5 5 4 3 4 5 4 2 1 1 1 2 3 4 5 6 5 3 2 2 2 3 5 5 5 5 5 6 6
2 2 5 5 3 2 8 10 6 4 8 11 10 9 9 7 6 5 4 4 5 5 4 3 4 4 4 3 2 1 1 2 2 2 3 4 5 4 3 3 3 3 4 5 4 4 4 4 5
3 3 3 5 5 3 8 5 3 3 8 9 8 8 8 7 5 5 5 5 5 5 5 4 4 4 4 3 2 2 1 1 1 2 2 4 5 5 3 3 3 3 4 3 3 3 3 4 5
5 2 2 4 5 3 6 5 1 2 6 6 6 6 7 6 5 4 4 4 4 5 5 5 4 4 4 4 3 2 1 1 1 1 1 3 4 4 3 3 3 3 2 2 2 2 2 3 5
4 1 1 2 4 5 7 6 2 2 4 5 4 5 5 5 3 2 1 2 3 4 5 5 5 5 4 3 2 1 1 0 0 0 1 2 2 3 2 2 2 2 1 2 2 3 2 3 4
3 2 2 2 2 5 6 6 1 1 3 3 2 2 2 2 1 1 1 2 2 3 4 4 4 4 3 2 2 1 1 0 0 1 1 1 1 1 2 2 2 2 2 3 3 2 3 3 2
3 3 3 3 4 4 5 3 1 1 0 1 2 3 3 2 1 2 2 2 2 3 3 3 4 3 3 2 2 1 1 1 1 1 2 2 2 2 2 3 3 3 3 3 3 3 2 2 2
1 3 4 5 4 5 4 2 1 2 2 1 2 3 3 5 5 5 4 4 4 5 4 4 4 3 2 2 2 2 2 2 2 2 2 3 4 4 4 4 3 4 3 4 5 4 4 3 2
1 1 5 6 5 2 2 0 3 2 3 3 4 4 5 6 5 5 5 5 6 5 4 3 2 2 2 2 2 2 2 2 2 2 2 4 5 5 5 4 4 4 4 5 6 5 5 4 4
3 5 6 5 5 4 5 3 4 1 3 4 6 7 6 6 5 6 6 5 3 2 2 2 2 1 1 2 2 2 2 2 2 2 4 4 5 5 5 4 4 4 4 5 6 5 5 4 4
7 7 7 6 5 4 3 2 4 4 5 5 5 6 6 5 5 4 3 2 1 1 1 1 2 1 0 1 1 2 3 3 3 4 4 4 4 5 6 5 4 5 4 5 6 5 6 5 5
5 6 5 5 5 2 2 1 7 7 6 6 6 6 5 4 4 3 3 2 2 1 1 1 1 1 1 1 2 2 3 4 5 5 5 5 4 4 6 5 5 5 5 5 5 5 6 6 6
4 6 6 3 3 3 3 3 7 6 5 5 6 5 4 4 3 3 3 3 2 2 1 1 1 1 2 2 3 3 3 3 4 5 5 5 5 6 7 7 6 7 6 6 5 5 6 5 7
6 3 6 7 3 1 4 6 7 3 3 3 4 4 4 3 2 3 3 2 2 2 1 1 1 1 3 3 3 4 4 4 5 6 5 5 6 6 7 7 7 7 7 6 6 5 6 5 6
5 8 6 6 4 0 4 4 5 6 6 5 4 5 4 3 3 3 2 1 1 0 0 1 1 3 4 4 4 4 5 5 5 5 7 7 7 7 7 8 7 7 7 7 6 6 7 7 7
4 5 6 5 5 6 3 7 7 9 8 7 7 6 6 5 4 2 1 0 0 1 2 2 3 4 5 5 5 5 6 6 6 6 7 7 7 7 7 8 8 8 8 7 7 8 8 8 8
2 6 7 5 3 4 4 7 5 7 7 7 7 5 4 4 3 2 1 1 2 3 4 4 5 5 6 5 5 6 6 6 6 7 7 7 7 8 8 8 8 9 9 8 8 9 9 9 10
Wind_Direction
139 135 125 102 58 4 273 261 251 303 318 353 80 97 111 113 163 175 114 137 136 145 155 156 154 149 144 141 139 138 137 137 138 140 143 146 151 155 158 160 163 165 165 162 157 151 145 141 138
136 141 102 77 74 334 287 267 294 290 252 165 75 80 77 75 75 110 129 139 140 145 151 155 155 151 147 145 143 142 142 142 143 145 148 151 155 158 162 165 167 169 169 167 164 161 156 151 148
148 155 96 81 129 240 281 289 299 302 274 285 66 60 81 107 127 140 147 140 138 141 147 157 157 153 150 148 147 147 147 148 149 151 154 157 161 164 167 169 172 173 174 174 173 170 166 162 159
139 72 65 67 266 249 251 278 290 301 317 30 90 60 55 45 128 138 137 140 139 139 145 159 158 156 154 152 152 152 153 154 156 159 162 165 168 171 173 175 177 180 183 184 183 180 177 174 171
80 87 54 335 271 264 262 280 287 290 339 35 77 75 37 17 93 124 136 142 142 139 145 159 160 160 158 157 157 158 159 161 164 166 170 173 176 179 181 184 188 191 194 195 195 193 189 187 185
67 71 74 285 278 279 281 300 335 355 38 36 59 74 46 74 107 128 134 135 140 142 143 158 162 164 164 163 164 165 168 170 172 175 179 182 184 188 191 195 199 204 206 206 207 206 203 201 199
114 111 194 253 280 293 309 338 7 1 29 32 74 91 81 106 109 117 121 126 133 137 136 146 160 167 169 170 171 173 176 179 182 185 188 190 193 197 201 204 210 215 217 216 217 216 214 213 212
140 113 280 271 270 281 306 347 346 7 32 72 87 127 160 145 120 110 112 122 133 134 130 125 141 154 165 174 179 182 184 187 190 194 196 200 204 207 210 213 219 225 226 226 227 227 225 223 221
121 81 251 244 243 267 309 344 338 357 65 45 44 105 134 129 123 118 121 127 142 148 139 133 128 136 151 171 189 193 196 198 200 204 206 208 212 216 219 222 227 234 236 236 236 237 235 232 231
122 175 232 226 223 255 300 326 320 22 43 41 55 84 117 130 135 138 145 153 161 164 167 160 149 143 149 179 195 202 205 206 209 212 217 214 211 219 226 231 235 239 242 243 243 244 243 239 235
175 208 244 255 247 252 276 324 0 83 42 42 115 128 132 137 144 146 152 160 170 167 167 171 164 156 161 169 176 196 205 207 217 221 222 220 215 223 231 234 246 250 250 248 250 248 243 237 231
201 248 250 276 278 257 225 132 58 52 63 84 108 123 129 137 139 144 150 149 143 145 154 164 166 165 169 172 188 201 210 210 217 221 218 215 219 221 229 230 239 251 258 254 247 243 241 235 234
221 267 275 275 324 66 93 84 92 56 70 83 91 93 100 103 103 106 112 119 124 133 147 162 170 173 174 179 219 206 222 234 236 233 229 218 221 225 224 230 236 245 249 250 254 254 252 244 239
235 250 304 332 19 72 87 62 69 52 81 87 85 81 82 86 98 98 96 113 130 140 147 152 154 158 159 168 174 181 232 243 236 226 229 219 218 221 227 238 235 240 247 253 253 252 252 251 244
288 307 344 4 19 100 93 53 42 47 85 87 87 87 80 71 71 85 98 113 122 126 129 138 129 126 145 160 180 184 198 233 240 236 237 223 210 205 206 219 232 238 245 248 250 255 256 260 255
19 29 356 338 8 53 92 94 27 19 93 92 92 91 82 69 64 70 86 101 114 123 126 128 131 136 142 146 147 131 173 187 221 218 211 211 210 204 203 215 232 241 244 246 250 251 259 262 263
18 8 328 334 5 53 93 125 74 30 96 97 94 94 92 85 71 63 74 96 116 124 126 126 123 135 143 147 141 143 162 176 202 214 235 233 230 222 217 227 237 238 240 251 268 258 247 264 271
265 264 339 358 15 73 97 116 106 44 96 100 91 90 96 101 111 117 125 122 125 130 132 140 144 148 142 130 117 104 92 30 85 194 261 254 239 224 213 237 252 251 247 250 245 254 250 256 267
196 170 121 52 44 75 95 107 100 44 85 102 107 114 132 152 163 169 182 169 143 155 158 162 155 157 143 130 136 143 195 255 294 274 280 288 288 271 247 257 261 251 244 248 246 246 255 257 244
153 131 117 82 57 88 98 82 50 360 323 197 190 198 192 191 214 222 213 213 213 211 193 179 175 175 178 167 156 160 155 190 254 318 333 336 332 307 273 258 262 256 252 262 248 223 238 254 223
147 169 166 145 92 65 96 41 1 338 343 282 235 227 221 219 214 219 225 224 224 223 214 199 197 193 184 153 107 83 61 29 359 337 323 322 321 309 294 274 261 256 239 249 245 223 219 240 250
232 216 139 128 114 52 44 174 292 303 308 256 246 245 246 248 235 228 231 233 228 227 215 206 200 201 184 155 155 161 174 224 247 262 288 307 313 308 298 282 270 259 246 247 250 232 221 219 241
134 79 89 91 102 68 27 60 298 314 272 251 247 249 250 252 238 233 230 231 241 232 207 196 182 209 211 181 179 177 206 236 269 288 298 304 306 303 296 285 275 267 256 250 249 242 226 219 224
122 78 61 53 66 45 352 41 292 249 231 241 237 243 247 241 231 230 227 219 233 199 165 162 168 244 291 219 205 207 237 261 282 288 291 293 295 297 293 286 276 271 262 254 249 243 236 228 229
83 86 39 12 19 290 295 285 256 255 235 226 236 245 249 235 224 218 207 205 199 169 147 110 122 319 333 308 277 261 258 258 259 268 273 280 286 283 282 283 277 273 264 259 252 245 243 233 230
151 131 149 187 210 283 326 266 259 258 247 233 237 243 249 234 221 207 197 187 182 162 129 113 110 303 314 302 291 284 269 256 258 261 260 263 263 268 276 279 274 270 268 268 257 250 249 239 235
131 122 140 121 117 43 299 294 304 270 252 224 220 218 225 220 202 180 165 157 161 144 141 160 184 272 289 289 289 285 280 269 269 273 267 265 264 270 272 273 273 272 268 264 259 254 256 249 242
121 136 101 107 128 297 308 288 251 253 240 227 212 211 210 186 172 154 136 137 149 180 296 308 260 267 279 285 280 281 280 275 272 276 276 273 273 273 280 279 276 274 271 266 258 257 258 255 251
115 96 100 102 139 148 233 268 226 224 224 218 218 210 200 196 187 174 166 181 295 311 293 284 283 280 281 281 281 285 284 283 281 276 275 277 279 279 277 277 277 275 272 267 258 256 257 254 256
162 154 148 145 185 164 177 263 268 237 231 216 216 208 186 175 164 162 185 280 293 286 285 284 285 282 278 281 285 284 284 286 284 280 280 280 280 279 276 276 275 274 272 264 258 260 259 252 253
Height
1513 1515 1517 1520 1522 1525 1521 1508 1499 1493 1489 1487 1487 1486 1488 1491 1495 1500 1496 1497 1501 1506 1510 1515 1519 1522 1525 1527 1529 1532 1534 1536 1537 1539 1541 1542 1544 1545 1546 1547 1548 1549 1550 1551 1552 1552 1553 1553 1554
1514 1516 1519 1520 1523 1528 1517 1501 1496 1491 1488 1487 1487 1488 1489 1491 1491 1493 1494 1498 1503 1507 1511 1516 1520 1523 1526 1528 1531 1533 1535 1536 1538 1540 1541 1543 1544 1546 1547 1548 1549 1550 1551 1552 1553 1553 1554 1554 1555
1515 1517 1519 1520 1523 1525 1513 1497 1492 1488 1487 1487 1488 1489 1491 1492 1493 1494 1496 1500 1504 1509 1513 1517 1521 1524 1527 1529 1532 1534 1535 1537 1539 1540 1542 1543 1545 1546 1547 1549 1550 1551 1552 1553 1553 1554 1555 1555 1556
1515 1518 1519 1523 1523 1514 1504 1495 1490 1488 1486 1487 1488 1492 1493 1495 1496 1497 1498 1502 1506 1510 1515 1518 1522 1525 1528 1531 1533 1534 1536 1538 1539 1541 1542 1544 1545 1547 1548 1549 1550 1551 1552 1553 1554 1555 1555 1556 1557
1515 1517 1522 1526 1521 1507 1498 1492 1489 1487 1487 1488 1489 1493 1495 1497 1497 1499 1501 1504 1507 1511 1516 1520 1523 1526 1529 1532 1534 1535 1537 1538 1540 1541 1543 1544 1545 1547 1548 1549 1550 1551 1552 1553 1554 1555 1556 1557 1558
1516 1517 1528 1529 1518 1504 1495 1491 1488 1487 1488 1489 1491 1494 1498 1498 1499 1501 1503 1506 1509 1513 1517 1521 1524 1527 1530 1532 1534 1536 1538 1539 1540 1541 1543 1544 1545 1546 1548 1549 1550 1551 1552 1553 1554 1555 1556 1557 1558
1516 1521 1525 1523 1517 1506 1495 1491 1490 1489 1490 1492 1493 1496 1499 1500 1502 1503 1505 1508 1511 1515 1518 1521 1524 1528 1531 1533 1535 1537 1538 1539 1541 1542 1543 1544 1545 1546 1547 1548 1549 1551 1552 1553 1554 1555 1556 1557 1557
1514 1519 1522 1521 1515 1507 1495 1493 1492 1491 1491 1493 1494 1496 1499 1501 1502 1505 1507 1510 1512 1516 1519 1522 1525 1528 1531 1533 1535 1537 1538 1539 1540 1542 1543 1544 1545 1545 1546 1547 1548 1549 1551 1552 1553 1554 1555 1556 1557
1514 1522 1526 1518 1511 1503 1495 1494 1493 1492 1492 1493 1494 1496 1498 1501 1503 1506 1508 1511 1514 1517 1519 1522 1525 1529 1531 1534 1536 1537 1538 1539 1540 1541 1542 1543 1543 1544 1545 1546 1547 1548 1549 1550 1551 1552 1553 1554 1555
1513 1522 1516 1505 1501 1498 1496 1495 1495 1494 1494 1495 1496 1497 1500 1502 1504 1506 1509 1511 1514 1517 1519 1522 1525 1528 1531 1533 1535 1536 1538 1538 1539 1540 1541 1542 1542 1543 1544 1544 1545 1546 1547 1548 1549 1550 1551 1552 1552
1509 1511 1503 1499 1497 1496 1495 1496 1495 1495 1498 1498 1498 1499 1501 1504 1506 1508 1510 1512 1514 1517 1520 1523 1525 1528 1529 1531 1533 1535 1536 1537 1537 1539 1540 1540 1541 1541 1542 1542 1543 1544 1544 1545 1546 1547 1548 1548 1549
1507 1502 1500 1496 1494 1494 1494 1495 1497 1498 1500 1500 1499 1500 1503 1506 1508 1510 1512 1514 1516 1518 1520 1522 1525 1527 1528 1530 1531 1532 1534 1535 1536 1537 1538 1538 1539 1539 1539 1540 1541 1541 1542 1542 1543 1544 1544 1545 1545
1504 1500 1497 1495 1493 1493 1493 1496 1498 1501 1501 1501 1502 1503 1506 1508 1510 1512 1513 1515 1517 1519 1521 1522 1524 1525 1527 1528 1530 1531 1533 1534 1535 1536 1536 1536 1537 1537 1537 1537 1538 1538 1539 1539 1539 1539 1540 1540 1541
1499 1498 1496 1495 1493 1493 1495 1499 1500 1504 1503 1503 1504 1505 1508 1510 1511 1512 1513 1514 1517 1519 1520 1522 1523 1525 1526 1528 1529 1530 1531 1532 1532 1532 1533 1533 1533 1534 1534 1535 1535 1535 1535 1535 1535 1536 1535 1535 1535
1498 1498 1497 1495 1494 1495 1495 1504 1506 1506 1505 1505 1506 1508 1510 1511 1512 1513 1514 1515 1517 1519 1520 1521 1522 1524 1525 1526 1527 1528 1529 1530 1530 1530 1530 1530 1530 1531 1531 1531 1531 1532 1531 1532 1532 1531 1531 1530 1531
1498 1502 1506 1499 1496 1496 1500 1514 1510 1508 1506 1507 1508 1509 1510 1512 1513 1514 1515 1516 1517 1519 1520 1521 1522 1523 1524 1526 1526 1527 1527 1527 1527 1528 1528 1528 1528 1528 1528 1528 1528 1529 1528 1528 1528 1527 1526 1525 1525
1507 1511 1510 1504 1498 1498 1502 1512 1511 1509 1508 1508 1509 1510 1511 1513 1514 1515 1516 1518 1519 1520 1520 1521 1522 1523 1524 1525 1525 1526 1526 1526 1526 1526 1526 1526 1526 1526 1526 1525 1525 1525 1525 1524 1524 1523 1522 1521 1520
1511 1510 1510 1509 1503 1502 1507 1512 1512 1511 1510 1510 1511 1511 1513 1514 1516 1517 1517 1518 1519 1520 1521 1521 1522 1523 1523 1524 1525 1525 1525 1525 1524 1524 1524 1524 1524 1523 1522 1522 1522 1522 1521 1520 1520 1519 1518 1517 1516
1502 1506 1510 1508 1504 1507 1512 1514 1514 1513 1512 1512 1513 1513 1514 1516 1517 1518 1519 1519 1519 1521 1521 1522 1522 1522 1523 1524 1524 1524 1524 1523 1523 1523 1522 1522 1521 1520 1520 1519 1519 1518 1517 1517 1516 1515 1514 1514 1513
1501 1507 1510 1509 1506 1510 1516 1517 1516 1515 1515 1514 1514 1514 1515 1515 1517 1519 1519 1519 1520 1521 1522 1522 1522 1522 1523 1523 1523 1523 1522 1521 1521 1520 1520 1519 1518 1517 1516 1516 1515 1514 1514 1513 1512 1512 1511 1510 1510
1502 1506 1508 1511 1511 1513 1517 1522 1520 1517 1516 1516 1515 1515 1515 1516 1516 1518 1518 1519 1520 1520 1521 1522 1522 1522 1522 1521 1521 1521 1520 1519 1519 1518 1517 1516 1515 1514 1513 1512 1511 1510 1509 1509 1508 1508 1507 1507 1506
1506 1500 1502 1507 1516 1526 1523 1533 1524 1520 1518 1516 1515 1515 1515 1515 1516 1517 1518 1518 1519 1520 1520 1520 1520 1520 1520 1520 1519 1518 1518 1517 1516 1515 1514 1513 1512 1510 1509 1507 1506 1505 1505 1504 1504 1503 1503 1503 1502
1502 1500 1504 1510 1518 1526 1528 1532 1529 1521 1520 1516 1514 1514 1514 1515 1516 1516 1517 1517 1518 1518 1519 1519 1519 1519 1518 1517 1517 1516 1515 1514 1513 1511 1510 1509 1507 1506 1504 1503 1502 1501 1500 1499 1499 1499 1499 1498 1498
1499 1505 1511 1518 1525 1537 1534 1536 1531 1523 1517 1514 1512 1512 1512 1513 1514 1515 1515 1516 1517 1517 1517 1517 1517 1516 1516 1515 1514 1513 1512 1510 1509 1507 1506 1504 1503 1501 1500 1499 1497 1496 1495 1495 1494 1494 1494 1494 1494
1501 1515 1532 1535 1543 1542 1533 1535 1530 1513 1510 1510 1509 1509 1510 1511 1513 1513 1514 1514 1515 1515 1515 1515 1514 1514 1513 1512 1511 1509 1508 1506 1504 1503 1501 1499 1498 1496 1495 1494 1492 1491 1490 1490 1489 1489 1489 1489 1489
1504 1511 1532 1539 1544 1542 1534 1534 1521 1508 1506 1507 1507 1508 1509 1510 1511 1511 1512 1513 1513 1513 1513 1513 1512 1511 1510 1509 1507 1506 1504 1502 1500 1499 1497 1495 1493 1491 1490 1488 1487 1486 1485 1484 1484 1483 1483 1483 1483
1505 1512 1515 1532 1538 1542 1536 1527 1514 1505 1505 1505 1505 1506 1507 1508 1509 1510 1511 1512 1512 1512 1511 1511 1510 1508 1507 1505 1504 1502 1500 1498 1496 1494 1492 1490 1488 1486 1484 1483 1481 1480 1479 1478 1478 1477 1477 1477 1477
1498 1509 1522 1532 1542 1544 1534 1529 1524 1508 1505 1503 1504 1505 1506 1507 1508 1509 1510 1510 1510 1510 1509 1508 1507 1505 1503 1502 1500 1498 1496 1494 1492 1490 1488 1485 1483 1481 1479 1477 1476 1474 1473 1472 1472 1471 1471 1471 1471
1502 1511 1521 1532 1532 1543 1544 1534 1506 1503 1500 1501 1501 1502 1504 1506 1507 1508 1509 1509 1509 1508 1507 1505 1504 1502 1500 1498 1496 1494 1492 1490 1488 1485 1483 1480 1478 1475 1473 1471 1470 1468 1467 1466 1465 1465 1464 1464 1464
1495 1502 1515 1525 1532 1536 1539 1530 1498 1497 1497 1498 1500 1501 1503 1505 1506 1507 1508 1508 1507 1506 1504 1503 1501 1499 1497 1495 1493 1491 1488 1486 1483 1480 1478 1475 1472 1470 1468 1465 1464 1462 1461 1460 1459 1458 1458 1457 1457